215  
ASUS41 KAKQ 071916  
RWRAKQ  
 
REGIONAL WEATHER ROUNDUP  
NATIONAL WEATHER SERVICE WAKEFIELD VA  
300 PM EDT SUN AUG 07 2022  
 
NOTE: "FAIR" INDICATES FEW OR NO CLOUDS BELOW 12,000 FEET WITH NO  
SIGNIFICANT WEATHER AND/OR S TO VISIBILITY
. * = DENOTES  
STATION MAY NOT REPORT PRECIPITATION (E.G., RAIN,SNOW,ETC.),
 
THUNDER OR FOG.  
 
VAZ042-051-052>054-056-072000-  
NORTHERN VIRGINIA  
 
CITY SKY/WX TMP DP RH WIND PRES REMARKS
 
WASH NATIONAL PTSUNNY 89 73 59 S14 30.15F HX 97  
DULLES PTSUNNY 90 74 59 S9 30.14F HX 99  
FORT BELVOIR SUNNY 90 73 58 SE12 30.13F HX 98  
QUANTICO SUNNY 88 74 63 S12 30.15F HX 96  
FREDERICKSBRG* MOSUNNY 89 71 55 S9 30.14F HX 95  
STAFFORD* PTSUNNY 90 71 53 S8 30.19F HX 95  
WARRENTON NOT AVBL  
CULPEPER* PTSUNNY 89 72 55 S8 30.16F HX 96  
MANASSAS* PTSUNNY 89 75 63 S9 30.15F HX 99  
LEESBURG* MOSUNNY 91 75 59 S9G16 30.15F HX 102  
WINCHESTER PTSUNNY 86 72 62 SE6 30.14F  
FRONT ROYAL* FAIR 90 73 58 S10 30.14F HX 98  
LURAY* FAIR 90 68 48 SW12 30.15F  

 
 
VAZ048-049-060>072-079>083-072000-  
CENTRAL AND SOUTH CENTRAL VIRGINIA  
 
CITY SKY/WX TMP DP RH WIND PRES REMARKS
 
RICHMOND PTSUNNY 89 72 56 S8 30.16F HX 96  
CHESTERFIELD* FAIR 87 73 62 VRB5 30.17F  
PETERSBURG* MOSUNNY 87 72 61 S3 30.17F  
HANOVER MOSUNNY 88 72 58 S8 30.17F  
TAPPAHANNOCK* PTSUNNY 86 76 71 SW7 30.17F HX 96  
QUINTON* FAIR 88 71 57 S5 30.16F  
CHARLOTTSVILLE MOSUNNY 90 72 55 SW12 30.17F HX 96  
GORDONSVILLE* NOT AVBL  
ORANGE* PTSUNNY 88 73 62 S8 30.18F HX 96  
LOUISA* MOSUNNY 87 76 70 SW7 30.17F HX 96  
BUMPASS* FAIR 87 74 66 S5 30.17F HX 95  
FARMVILLE* MOSUNNY 87 73 62 SW6 30.16F  
CREWE* FAIR 86 68 54 S5 30.17F  
FORT PICKETT* FAIR 87 71 59 S5 30.18F  
CHASE CITY* FAIR 87 72 59 S7 30.18F  
CLARKSVILLE* FAIR 86 73 66 CALM 30.18F  
SOUTH HILL* NOT AVBL  
LAWRENCEVILLE* FAIR 90 73 57 CALM 30.19F HX 98  
EMPORIA* PTSUNNY 88 72 58 SE3 30.18F HX 95  

 
 
VAZ088>098-072000-  
SOUTHEAST VIRGINIA  
 
CITY SKY/WX TMP DP RH WIND PRES REMARKS
 
NORFOLK PTSUNNY 88 72 58 S12 30.17F  
VIRGINIA BEACH PTSUNNY 89 76 65 S12 30.17F HX 100  
NORFOLK NAVAL PTSUNNY 88 73 61 S9 30.18F HX 95  
WEST POINT* NOT AVBL  
SALUDA* MOCLDY 86 74 67 S8 30.17F  
NEWPORT NEWS PTSUNNY 88 71 57 S12 30.18F  
LANGLEY AFB PTSUNNY 89 74 61 S9 30.17F HX 98  
FORT EUSTIS PTSUNNY 90 71 54 S10 30.15F HX 96  
WILLIAMSBURG* NOT AVBL  
HR EXEC AP* FAIR 90 76 63 S8 30.18F HX 101  
FRANKLIN* PTSUNNY 82 73 75 SE9 30.19S  
US460-WAKEFLD MOSUNNY 88 73 61 S3 30.17F HX 95  

 
 
VAZ020-022-025-037-045-072000-  
WEST CENTRAL AND SOUTHWEST VIRGINIA  
 
CITY SKY/WX TMP DP RH WIND PRES REMARKS
 
STAUNTON* MOSUNNY 85 69 57 S7 30.20F  
WAYNESBORO* CLOUDY 82 70 68 MISG 30.21F  
HOT SPRINGS VA CLOUDY 73 73 100 CALM 30.35F  
LYNCHBURG MOSUNNY 88 71 57 VRB3 30.19F  
DANVILLE SUNNY 87 71 58 VRB3 30.18F  
BROOKNEAL* NOT AVBL  
SOUTH BOSTON* MOCLDY 88 72 60 E3 30.18F HX 95  
MARTINSVILLE SUNNY 85 72 63 SE3 30.22F  
ROANOKE MOSUNNY 88 70 55 VRB5 30.21F  
BLACKSBURG MOSUNNY 83 66 57 SW3 30.28F  
DUBLIN* PTSUNNY 82 70 66 CALM 30.26F  
MARION* MOSUNNY 85 67 53 W6 30.30F  
HILLSVILLE* NOT AVBL  
RICHLANDS* NOT AVBL  
WISE* MOSUNNY 77 68 73 S6 30.30F  
ABINGDON* NOT AVBL  

 
 
MDZ021>025-VAZ099-100-072000-  
SOUTHERN MARYLAND AND THE DELMARVA PENINSULA  
 
CITY SKY/WX TMP DP RH WIND PRES REMARKS
 
PATUXENT RIVER PTSUNNY 90 74 59 S10 30.16F HX 99  
BAY BRIDGE APT NOT AVBL  
LEONARDTOWN MOSUNNY 90 73 58 SW8 30.18F HX 98  
DOVER MOSUNNY 89 69 52 S13 30.15F  
GEORGETOWN LGT RAIN 90 72 55 SW14 30.17F HX 97  
EASTON MOSUNNY 90 79 70 SW10 30.21F HX 105  
CAMBRIDGE NOT AVBL  
SALISBURY MOSUNNY 90 73 57 SW9 30.17F HX 98  
TANGIER FAIR 88 76 67 S9 30.18F HX 98  
OCEAN CITY PTSUNNY 83 76 79 S10G20 30.20F  
WALLOPS ISLAND MOSUNNY 86 74 67 S15 30.20F  
ACCOMACK* NOT AVBL  

 
 
NCZ012>017-030>032-072000-  
NORTH CENTRAL AND EASTERN NORTH CAROLINA  
 
CITY SKY/WX TMP DP RH WIND PRES REMARKS
 
ROANOKE RAPIDS FAIR 86 79 79 S5 30.17F HX 99  
RALEIGH PTSUNNY 89 72 56 VRB3 30.17F HX 96  
ELIZABETH CITY PTSUNNY 90 73 57 S10 30.19F HX 98  
AHOSKIE* PTSUNNY 83 72 68 SE5 30.18F  
EDENTON* MOSUNNY 91 77 62 S13 30.19F HX 104  
CURRITUCK* PTSUNNY 89 65 45 S8 30.18F  
KILL DEVIL HLS MOSUNNY 87 72 60 SE10 30.20F  
MANTEO SUNNY 87 73 63 S12 30.21F  
CAPE HATTERAS SUNNY 87 76 69 S10 30.22F HX 97  
TARBORO* MOCLDY 86 75 69 SW5 30.18F HX 95  
GOLDSBORO PTSUNNY 86 65 48 SE9 30.15F  
WASHINGTON MOSUNNY 89 69 52 SE12 30.19F  
GREENVILLE MOSUNNY 88 75 66 W10 30.18F HX 97  
NEW BERN LGT RAIN 86 72 62 S13G22 30.20F  
WILMINGTON MOSUNNY 88 72 58 S9 30.17F  

 
 
VAZ048-072000-  
ELSEWHERE  
 
CITY SKY/WX TMP DP RH WIND PRES REMARKS
 
HARRISBURG PA PTSUNNY 89 68 49 SW8 30.11F  
BALTIMORE PTSUNNY 91 72 53 SW7G23 30.13F HX 98  
ANNAPOLIS SUNNY 88 73 61 SE14 30.15F HX 95  
ANDREWS AFB SUNNY 88 71 56 S14 30.14F  
PHILADELPHIA PTSUNNY 93 70 46 SW17G26 30.14F HX 99  
HENDERSON NC PTSUNNY 84 70 62 SE6 30.19F  
GREENSBORO PTSUNNY 87 67 51 CALM 30.18F  
ROCKY MOUNT MOSUNNY 93 69 45 VRB6 30.18F HX 98  

 
 
VAZ100-072000-  
MARINE  
 
STATION/POSITION TIME TEMP WIND PRES WAVE SWELL
 
AIR SEA DIR/SP/G HT/PER HT/PER  
(UTC) (F) (DEG/KT/KT) (MB) (FT/S) (FT/S)  
CAPE MAY NJ 1830 80 74 160/ 12/ 18 1022.0F  
LEWES DE 1830 88 71 240/ 8/ 14 1021.9F  
15NM E FENWICK I 1850 78 190/ 12/ 14 1022.4F 2/ 4 2/ 8  
OCEAN-CITY-INLET 1830 76 72 200/ 7/ 9 1022.9F  
44089 WALLOPS IS 1856 76 N/A 2/ 5  
WACHAPREAGUE VA 1830 83 86 180/ 11/ 14 1021.9F  
THOMAS POINT MD 1900 83 140/ 16/ 18 1021.8F  
GOOSES REEF MD 1848 81 84 160/ 14/ 17 1022.9F 1/ 3  
COVE POINT MD 1830 82 90/ 12/ 15 1022.0F  
SOLOMONS ISLAND 1830 85 84 190/ 10/ 14 1020.2F  
BISHOPS HEAD MD 1830 84 86 180/ 13/ 15 1022.3F  
PINEY POINT MD 1830 200/ 7/ 10 N/A  
POTOMAC MD 1848 82 85 140/ 12/ 14 N/A  
CAMBRIDGE MD 1830 86 85 190/ 11/ 16 1021.8F  
LEWISETTA VA 1830 86 85 220/ 11/ 13 1021.7F  
RAPPAHANNOCK LGT 1830 160/ 9/ 10 1022.6F  
STINGRAY PT 1848 81 85 160/ 14/ 16 N/A  
YORK RVR RNG VA 1830 84 130/ 12/ 12 1022.1F  
YORKTOWN VA 1830 87 83 170/ 12/ 15 1021.4F  
JAMESTOWN VA 1848 87 150/ 6/ 8 N/A 0  
DOMINION TERM VA 1830 86 200/ 14/ 15 1022.3F  
KIPTOPEKE VA 1830 84 170/ 16/ 20 N/A  
CHES BAY BRIDGE 1830 82 160/ 12/ 16 1021.6F  
CAPE HENRY VA 1830 81 140/ 11/ 15 1022.8F  
WILLOUBY STN VA 1830 86 220/ 11/ 14 1022.1F  
S CRANEY ISL VA 1830 87 190/ 11/ 14 1022.0F  
CAPE HENRY BUOY 1856 80 N/A 2/ 5  
1ST LANDING BUOY 1848 80 140/ 12/ 16 1023.7F  
64NM E OF VA BCH 1850 180/ 8/ 10 1022.3F 2/ 7 2/ 7  
DUCK PIER NC 1830 79 70 130/ 16/ 17 1022.6F  
44100 DUCK FRF 1856 78 N/A 2/ 5  
44056 DUCK FRF 1826 71 N/A 2/ 4  
OREGON INLET NC 1830 84 87 200/ 9/ 12 1023.3F  
HATTERAS NC 1830 85 85 160/ 10/ 12 1023.8F  
DIAMOND SHLS NC 1850 85 170/ 12/ 14 1022.9F  
CAPE LOOKOUT N  
 
CLICK HERE TO GO TO PREVIOUS BULLETINS.

The Nexlab VA Page
The Nexlab NC Page
The Nexlab MD Page Main Text Page